Time,TemperatureF,DewpointF,PressureIn,WindDirection,WindDirectionDegrees,WindSpeedMPH,WindSpeedGustMPH,Humidity,HourlyPrecipIn,Conditions,Clouds,dailyrainin,SoftwareType,DateUTC
2013-08-30 00:08:00,74.9,61.0,29.85,NNE,22,0.0,-999.0,63,-99.99,,,0.00,weatherlink.com 1.10,2013-08-30 07:08:00,
2013-08-30 00:24:00,74.6,62.0,29.85,NNE,22,0.0,-999.0,64,-99.99,,,0.00,weatherlink.com 1.10,2013-08-30 07:24:00,
2013-08-30 00:39:00,74.3,62.0,29.85,NNE,22,0.0,-999.0,65,-99.99,,,0.00,weatherlink.com 1.10,2013-08-30 07:39:00,
2013-08-30 00:54:00,74.2,62.0,29.85,NNE,22,0.0,-999.0,66,-99.99,,,0.00,weatherlink.com 1.10,2013-08-30 07:54:00,
2013-08-30 01:09:00,74.1,62.0,29.84,NNE,22,0.0,-999.0,66,-99.99,,,0.00,weatherlink.com 1.10,2013-08-30 08:09:00,
2013-08-30 01:24:00,73.9,62.0,29.84,NNE,22,0.0,-999.0,67,-99.99,,,0.00,weatherlink.com 1.10,2013-08-30 08:24:00,
2013-08-30 01:39:00,73.8,62.0,29.83,NNE,22,0.0,-999.0,67,-99.99,,,0.00,weatherlink.com 1.10,2013-08-30 08:39:00,
2013-08-30 01:54:00,73.7,62.0,29.83,NNE,22,0.0,-999.0,68,-99.99,,,0.00,weatherlink.com 1.10,2013-08-30 08:54:00,
2013-08-30 02:09:00,73.7,62.0,29.83,NNE,22,0.0,-999.0,68,-99.99,,,0.00,weatherlink.com 1.10,2013-08-30 09:09:00,
2013-08-30 02:24:00,73.5,63.0,29.83,NNE,22,0.0,-999.0,69,-99.99,,,0.00,weatherlink.com 1.10,2013-08-30 09:24:00,
2013-08-30 02:39:00,73.4,63.0,29.83,NNE,22,0.0,-999.0,70,-99.99,,,0.00,weatherlink.com 1.10,2013-08-30 09:39:00,
2013-08-30 02:54:00,73.4,63.0,29.83,NNE,22,0.0,-999.0,70,-99.99,,,0.00,weatherlink.com 1.10,2013-08-30 09:54:00,
2013-08-30 03:09:00,73.2,63.0,29.82,NNE,22,0.0,-999.0,71,-99.99,,,0.00,weatherlink.com 1.10,2013-08-30 10:09:00,
2013-08-30 03:24:00,73.2,64.0,29.82,NNE,22,0.0,-999.0,72,-99.99,,,0.00,weatherlink.com 1.10,2013-08-30 10:24:00,
2013-08-30 03:39:00,73.1,64.0,29.82,NNE,22,0.0,-999.0,72,-99.99,,,0.00,weatherlink.com 1.10,2013-08-30 10:39:00,
2013-08-30 03:54:00,72.9,63.0,29.82,NNE,22,0.0,-999.0,72,-99.99,,,0.00,weatherlink.com 1.10,2013-08-30 10:54:00,
2013-08-30 04:09:00,72.6,63.0,29.82,NNE,22,0.0,-999.0,73,-99.99,,,0.00,weatherlink.com 1.10,2013-08-30 11:09:00,
2013-08-30 04:24:00,72.5,64.0,29.82,NNE,22,0.0,-999.0,74,-99.99,,,0.00,weatherlink.com 1.10,2013-08-30 11:24:00,
2013-08-30 04:39:00,72.3,64.0,29.82,NNE,22,0.0,-999.0,74,-99.99,,,0.00,weatherlink.com 1.10,2013-08-30 11:39:00,
2013-08-30 04:54:00,72.2,64.0,29.82,NNE,22,0.0,-999.0,75,-99.99,,,0.00,weatherlink.com 1.10,2013-08-30 11:54:00,
2013-08-30 05:09:00,72.1,64.0,29.82,NNE,22,0.0,-999.0,76,-99.99,,,0.00,weatherlink.com 1.10,2013-08-30 12:09:00,
2013-08-30 05:24:00,72.2,64.0,29.83,NNE,22,0.0,-999.0,76,-99.99,,,0.00,weatherlink.com 1.10,2013-08-30 12:24:00,
2013-08-30 05:39:00,72.1,65.0,29.83,NNE,22,0.0,-999.0,77,-99.99,,,0.00,weatherlink.com 1.10,2013-08-30 12:39:00,
2013-08-30 05:54:00,72.1,65.0,29.83,NNE,22,0.0,-999.0,77,-99.99,,,0.00,weatherlink.com 1.10,2013-08-30 12:54:00,
2013-08-30 06:09:00,72.2,65.0,29.83,NNE,22,0.0,-999.0,78,-99.99,,,0.00,weatherlink.com 1.10,2013-08-30 13:09:00,
2013-08-30 06:24:00,72.2,65.0,29.84,NNE,22,0.0,-999.0,79,-99.99,,,0.00,weatherlink.com 1.10,2013-08-30 13:24:00,
2013-08-30 06:39:00,72.2,65.0,29.85,NNE,22,0.0,-999.0,79,-99.99,,,0.00,weatherlink.com 1.10,2013-08-30 13:39:00,
2013-08-30 06:54:00,72.4,66.0,29.85,NNE,22,0.0,-999.0,80,-99.99,,,0.00,weatherlink.com 1.10,2013-08-30 13:54:00,
2013-08-30 07:09:00,73.1,67.0,29.86,NNE,22,0.0,-999.0,80,-99.99,,,0.00,weatherlink.com 1.10,2013-08-30 14:09:00,
2013-08-30 07:24:00,74.2,67.0,29.87,ESE,116,2.0,-999.0,78,-99.99,,,0.00,weatherlink.com 1.10,2013-08-30 14:24:00,
2013-08-30 07:39:00,75.7,66.0,29.87,SSE,157,3.0,-999.0,73,-99.99,,,0.00,weatherlink.com 1.10,2013-08-30 14:39:00,
2013-08-30 07:54:00,76.1,64.0,29.88,SSW,199,4.0,-999.0,67,-99.99,,,0.00,weatherlink.com 1.10,2013-08-30 14:54:00,
2013-08-30 08:09:00,77.2,65.0,29.88,South,188,3.0,-999.0,67,-99.99,,,0.00,weatherlink.com 1.10,2013-08-30 15:09:00,
2013-08-30 08:24:00,78.0,66.0,29.89,South,169,4.0,-999.0,66,-99.99,,,0.00,weatherlink.com 1.10,2013-08-30 15:24:00,
2013-08-30 08:39:00,78.9,66.0,29.89,South,171,0.0,-999.0,65,-99.99,,,0.00,weatherlink.com 1.10,2013-08-30 15:39:00,
2013-08-30 08:54:00,80.2,66.0,29.89,South,176,2.0,-999.0,63,-99.99,,,0.00,weatherlink.com 1.10,2013-08-30 15:54:00,
2013-08-30 09:09:00,82.4,66.0,29.89,South,188,2.0,-999.0,58,-99.99,,,0.00,weatherlink.com 1.10,2013-08-30 16:09:00,
2013-08-30 09:24:00,82.8,66.0,29.89,SW,222,3.0,-999.0,58,-99.99,,,0.00,weatherlink.com 1.10,2013-08-30 16:24:00,
2013-08-30 09:39:00,83.6,66.0,29.90,SSW,212,0.0,-999.0,56,-99.99,,,0.00,weatherlink.com 1.10,2013-08-30 16:39:00,
2013-08-30 09:54:00,84.5,67.0,29.90,SSW,200,4.0,-999.0,56,-99.99,,,0.00,weatherlink.com 1.10,2013-08-30 16:54:00,
2013-08-30 10:10:00,86.0,67.0,29.90,SSE,159,1.0,-999.0,54,-99.99,,,0.00,weatherlink.com 1.10,2013-08-30 17:10:00,
2013-08-30 10:25:00,86.9,68.0,29.90,SSW,213,4.0,-999.0,54,-99.99,,,0.00,weatherlink.com 1.10,2013-08-30 17:25:00,
2013-08-30 10:40:00,87.9,68.0,29.90,SW,236,4.0,-999.0,51,-99.99,,,0.00,weatherlink.com 1.10,2013-08-30 17:40:00,
2013-08-30 10:55:00,89.1,68.0,29.90,SE,127,3.0,-999.0,50,-99.99,,,0.00,weatherlink.com 1.10,2013-08-30 17:55:00,
2013-08-30 11:10:00,88.9,68.0,29.90,South,181,9.0,-999.0,50,-99.99,,,0.00,weatherlink.com 1.10,2013-08-30 18:10:00,
2013-08-30 11:25:00,88.1,68.0,29.90,SW,225,9.0,-999.0,51,-99.99,,,0.00,weatherlink.com 1.10,2013-08-30 18:25:00,
2013-08-30 11:40:00,88.3,68.0,29.90,South,181,6.0,-999.0,51,-99.99,,,0.00,weatherlink.com 1.10,2013-08-30 18:40:00,
2013-08-30 11:55:00,87.1,68.0,29.90,SW,215,2.0,-999.0,54,-99.99,,,0.00,weatherlink.com 1.10,2013-08-30 18:55:00,
2013-08-30 12:10:00,87.5,69.0,29.90,SSW,205,10.0,-999.0,54,-99.99,,,0.00,weatherlink.com 1.10,2013-08-30 19:10:00,
2013-08-30 12:25:00,87.8,69.0,29.89,SW,224,8.0,-999.0,53,-99.99,,,0.00,weatherlink.com 1.10,2013-08-30 19:25:00,
2013-08-30 12:40:00,87.7,68.0,29.89,SW,223,9.0,-999.0,52,-99.99,,,0.00,weatherlink.com 1.10,2013-08-30 19:40:00,
2013-08-30 12:55:00,88.1,68.0,29.89,SSW,209,4.0,-999.0,51,-99.99,,,0.00,weatherlink.com 1.10,2013-08-30 19:55:00,
2013-08-30 13:10:00,88.8,67.0,29.88,South,183,6.0,-999.0,49,-99.99,,,0.00,weatherlink.com 1.10,2013-08-30 20:10:00,
2013-08-30 13:25:00,89.1,67.0,29.88,SSW,205,5.0,-999.0,48,-99.99,,,0.00,weatherlink.com 1.10,2013-08-30 20:25:00,
2013-08-30 13:40:00,90.6,67.0,29.88,SSW,212,5.0,-999.0,46,-99.99,,,0.00,weatherlink.com 1.10,2013-08-30 20:40:00,
2013-08-30 13:55:00,90.0,67.0,29.88,SW,219,4.0,-999.0,47,-99.99,,,0.00,weatherlink.com 1.10,2013-08-30 20:55:00,
2013-08-30 14:10:00,90.8,68.0,29.87,SSW,203,6.0,-999.0,48,-99.99,,,0.00,weatherlink.com 1.10,2013-08-30 21:10:00,
2013-08-30 14:25:00,89.6,68.0,29.86,SW,229,4.0,-999.0,49,-99.99,,,0.00,weatherlink.com 1.10,2013-08-30 21:25:00,
2013-08-30 14:40:00,89.9,68.0,29.86,SW,218,2.0,-999.0,48,-99.99,,,0.00,weatherlink.com 1.10,2013-08-30 21:40:00,
2013-08-30 14:55:00,88.6,69.0,29.86,SSW,204,4.0,-999.0,52,-99.99,,,0.00,weatherlink.com 1.10,2013-08-30 21:55:00,
2013-08-30 15:10:00,88.5,69.0,29.86,SSW,200,3.0,-999.0,52,-99.99,,,0.00,weatherlink.com 1.10,2013-08-30 22:10:00,
2013-08-30 15:25:00,89.0,70.0,29.85,SW,221,7.0,-999.0,53,-99.99,,,0.00,weatherlink.com 1.10,2013-08-30 22:25:00,
2013-08-30 15:40:00,88.8,69.0,29.85,WSW,240,6.0,-999.0,53,-99.99,,,0.00,weatherlink.com 1.10,2013-08-30 22:40:00,
2013-08-30 15:55:00,89.5,71.0,29.84,WSW,254,6.0,-999.0,54,-99.99,,,0.00,weatherlink.com 1.10,2013-08-30 22:55:00,
2013-08-30 16:10:00,89.0,70.0,29.84,West,260,4.0,-999.0,54,-99.99,,,0.00,weatherlink.com 1.10,2013-08-30 23:10:00,
2013-08-30 16:25:00,87.8,70.0,29.84,SW,228,5.0,-999.0,56,-99.99,,,0.00,weatherlink.com 1.10,2013-08-30 23:25:00,
2013-08-30 16:40:00,87.4,70.0,29.84,SSW,203,2.0,-999.0,56,-99.99,,,0.00,weatherlink.com 1.10,2013-08-30 23:40:00,
2013-08-30 16:55:00,88.7,71.0,29.84,South,175,0.0,-999.0,56,-99.99,,,0.00,weatherlink.com 1.10,2013-08-30 23:55:00,
2013-08-30 17:10:00,87.9,71.0,29.84,SW,231,3.0,-999.0,57,-99.99,,,0.00,weatherlink.com 1.10,2013-08-31 00:10:00,
2013-08-30 17:25:00,87.9,71.0,29.84,SW,221,3.0,-999.0,58,-99.99,,,0.00,weatherlink.com 1.10,2013-08-31 00:25:00,
2013-08-30 17:40:00,87.0,71.0,29.84,SW,235,3.0,-999.0,59,-99.99,,,0.00,weatherlink.com 1.10,2013-08-31 00:40:00,
2013-08-30 17:55:00,85.5,70.0,29.84,SW,229,2.0,-999.0,61,-99.99,,,0.00,weatherlink.com 1.10,2013-08-31 00:55:00,
2013-08-30 18:10:00,85.4,70.0,29.85,SW,217,2.0,-999.0,61,-99.99,,,0.00,weatherlink.com 1.10,2013-08-31 01:10:00,
2013-08-30 18:25:00,84.8,71.0,29.85,SW,234,2.0,-999.0,63,-99.99,,,0.00,weatherlink.com 1.10,2013-08-31 01:25:00,
2013-08-30 18:40:00,84.3,71.0,29.85,SW,221,5.0,-999.0,64,-99.99,,,0.00,weatherlink.com 1.10,2013-08-31 01:40:00,
2013-08-30 18:55:00,81.9,70.0,29.85,WSW,246,5.0,-999.0,68,-99.99,,,0.00,weatherlink.com 1.10,2013-08-31 01:55:00,
2013-08-30 19:10:00,79.6,70.0,29.85,SW,217,4.0,-999.0,72,-99.99,,,0.00,weatherlink.com 1.10,2013-08-31 02:10:00,
2013-08-30 19:25:00,78.4,70.0,29.85,SSW,204,0.0,-999.0,74,-99.99,,,0.00,weatherlink.com 1.10,2013-08-31 02:25:00,
2013-08-30 19:40:00,78.0,70.0,29.85,SSW,192,0.0,-999.0,75,-99.99,,,0.00,weatherlink.com 1.10,2013-08-31 02:40:00,
2013-08-30 19:55:00,78.0,69.0,29.86,SW,215,3.0,-999.0,74,-99.99,,,0.00,weatherlink.com 1.10,2013-08-31 02:55:00,
2013-08-30 20:10:00,78.0,68.0,29.86,WSW,237,0.0,-999.0,71,-99.99,,,0.00,weatherlink.com 1.10,2013-08-31 03:10:00,
2013-08-30 20:25:00,78.2,68.0,29.86,WSW,237,1.0,-999.0,70,-99.99,,,0.00,weatherlink.com 1.10,2013-08-31 03:25:00,
2013-08-30 20:40:00,78.2,67.0,29.86,SSW,206,0.0,-999.0,69,-99.99,,,0.00,weatherlink.com 1.10,2013-08-31 03:40:00,
2013-08-30 20:55:00,78.1,68.0,29.87,SW,229,1.0,-999.0,70,-99.99,,,0.00,weatherlink.com 1.10,2013-08-31 03:55:00,
2013-08-30 21:10:00,78.0,67.0,29.88,SW,229,3.0,-999.0,69,-99.99,,,0.00,weatherlink.com 1.10,2013-08-31 04:10:00,
2013-08-30 21:25:00,77.9,67.0,29.88,SW,229,2.0,-999.0,69,-99.99,,,0.00,weatherlink.com 1.10,2013-08-31 04:25:00,
2013-08-30 21:40:00,77.9,67.0,29.88,SW,229,1.0,-999.0,70,-99.99,,,0.00,weatherlink.com 1.10,2013-08-31 04:40:00,
2013-08-30 21:55:00,77.8,68.0,29.88,SW,229,3.0,-999.0,71,-99.99,,,0.00,weatherlink.com 1.10,2013-08-31 04:55:00,
2013-08-30 22:10:00,77.6,67.0,29.88,SW,229,1.0,-999.0,70,-99.99,,,0.00,weatherlink.com 1.10,2013-08-31 05:10:00,
2013-08-30 22:25:00,77.4,67.0,29.88,SW,229,0.0,-999.0,71,-99.99,,,0.00,weatherlink.com 1.10,2013-08-31 05:25:00,
2013-08-30 22:40:00,77.2,67.0,29.89,SW,229,1.0,-999.0,71,-99.99,,,0.00,weatherlink.com 1.10,2013-08-31 05:40:00,
2013-08-30 22:55:00,76.9,66.0,29.89,SW,229,0.0,-999.0,70,-99.99,,,0.00,weatherlink.com 1.10,2013-08-31 05:55:00,
2013-08-30 23:10:00,76.8,66.0,29.88,SW,229,3.0,-999.0,69,-99.99,,,0.00,weatherlink.com 1.10,2013-08-31 06:10:00,
2013-08-30 23:25:00,76.5,66.0,29.88,SW,229,0.0,-999.0,69,-99.99,,,0.00,weatherlink.com 1.10,2013-08-31 06:25:00,
2013-08-30 23:40:00,76.2,65.0,29.88,SW,229,0.0,-999.0,68,-99.99,,,0.00,weatherlink.com 1.10,2013-08-31 06:40:00,
2013-08-30 23:55:00,75.9,64.0,29.88,SW,229,0.0,-999.0,67,-99.99,,,0.00,weatherlink.com 1.10,2013-08-31 06:55:00,